TimeCST,TemperatureF,Dew PointF,Humidity,Sea Level PressureIn,VisibilityMPH,Wind Direction,Wind SpeedMPH,Gust SpeedMPH,PrecipitationIn,Events,Conditions,WindDirDegrees,DateUTC
12:53 AM,43.0,25.0,49,29.96,10.0,ESE,4.6,-,N/A,,Clear,110,2013-02-25 06:53:00
1:53 AM,42.1,26.1,53,29.94,10.0,East,8.1,-,N/A,,Clear,80,2013-02-25 07:53:00
2:53 AM,39.9,26.1,58,29.94,10.0,ENE,4.6,-,N/A,,Clear,70,2013-02-25 08:53:00
3:53 AM,39.9,25.0,55,29.92,10.0,ENE,4.6,-,N/A,,Clear,60,2013-02-25 09:53:00
4:53 AM,41.0,26.1,55,29.92,10.0,ENE,6.9,-,N/A,,Clear,70,2013-02-25 10:53:00
5:53 AM,41.0,25.0,53,29.91,10.0,ENE,6.9,-,N/A,,Clear,70,2013-02-25 11:53:00
6:53 AM,39.9,25.0,55,29.91,10.0,East,6.9,-,N/A,,Clear,80,2013-02-25 12:53:00
7:53 AM,43.0,26.1,51,29.90,10.0,East,11.5,20.7,N/A,,Clear,90,2013-02-25 13:53:00
8:53 AM,48.0,27.0,44,29.89,10.0,East,12.7,20.7,N/A,,Clear,100,2013-02-25 14:53:00
9:53 AM,50.0,27.0,41,29.89,10.0,East,11.5,-,N/A,,Scattered Clouds,90,2013-02-25 15:53:00
10:53 AM,55.9,28.0,34,29.87,10.0,East,12.7,-,N/A,,Partly Cloudy,90,2013-02-25 16:53:00
11:53 AM,59.0,30.0,33,29.81,10.0,East,11.5,19.6,N/A,,Mostly Cloudy,80,2013-02-25 17:53:00
12:53 PM,62.1,30.0,30,29.76,10.0,East,15.0,19.6,N/A,,Overcast,100,2013-02-25 18:53:00
1:53 PM,61.0,34.0,36,29.72,10.0,SE,8.1,17.3,N/A,,Overcast,130,2013-02-25 19:53:00
2:53 PM,59.0,39.0,48,29.70,10.0,ESE,10.4,19.6,N/A,,Overcast,120,2013-02-25 20:53:00
3:53 PM,57.9,41.0,53,29.62,10.0,ESE,20.7,28.8,N/A,,Overcast,110,2013-02-25 21:53:00
4:53 PM,57.9,43.0,58,29.63,10.0,ESE,10.4,21.9,N/A,,Mostly Cloudy,110,2013-02-25 22:53:00
5:53 PM,57.9,43.0,58,29.61,10.0,ESE,9.2,17.3,N/A,,Overcast,120,2013-02-25 23:53:00
6:13 PM,57.2,42.8,59,29.60,10.0,ESE,11.5,25.3,N/A,,Overcast,110,2013-02-26 00:13:00
6:53 PM,57.0,43.0,59,29.57,10.0,ESE,11.5,20.7,N/A,,Overcast,120,2013-02-26 00:53:00
7:53 PM,57.0,46.9,69,29.52,10.0,SE,9.2,23.0,N/A,,Overcast,130,2013-02-26 01:53:00
8:53 PM,55.9,48.0,75,29.48,10.0,ESE,16.1,31.1,0.01,Rain,Light Rain,120,2013-02-26 02:53:00
9:11 PM,53.6,48.2,82,29.45,10.0,ESE,13.8,31.1,0.02,Rain,Light Rain,110,2013-02-26 03:11:00
9:53 PM,52.0,46.9,83,29.47,10.0,SE,9.2,21.9,0.06,Rain,Light Rain,130,2013-02-26 03:53:00
10:53 PM,51.1,46.9,86,29.40,8.0,ESE,11.5,20.7,0.10,Rain,Light Rain,120,2013-02-26 04:53:00
11:53 PM,51.1,48.0,89,29.42,6.0,South,8.1,-,0.19,Rain,Light Rain,170,2013-02-26 05:53:00